Location: Epalinges
(46.5518°N, 6.6683°E)
Time: 20:08:59
(UTC+00:00)

IRS-P3 - Pass Details

Date: 20 June 2021
Orbit: 813 x 819 km, 98.9° (Epoch: 02 August)

Event Time Altitude Azimuth Distance (km) Brightness Sun altitude
Rises 02:43:38 0° 14° (NNE) 3,352 8.5 -8.1°
Reaches altitude 10° 02:45:59 10° 15° (NNE) 2,415 7.7 -7.8°
Maximum altitude 02:51:20 90° 286° (WNW) 821 4.2 -7.1°
Drops below altitude 10° 02:56:39 10° 197° (SSW) 2,396 6.0 -6.5°
Enters shadow 02:58:07 - 197° (SSW) 2,978 6.5 -6.3°
